TimeEDT,TemperatureF,Dew PointF,Humidity,Sea Level PressureIn,VisibilityMPH,Wind Direction,Wind SpeedMPH,Gust SpeedMPH,PrecipitationIn,Events,Conditions,WindDirDegrees,DateUTC
12:54 AM,60.1,57.9,93,29.95,8.0,Calm,Calm,-,N/A,,Clear,0,2013-05-21 04:54:00
1:31 AM,59.0,57.2,94,29.95,2.5,Calm,Calm,-,N/A,,Clear,0,2013-05-21 05:31:00
1:47 AM,60.8,57.2,88,29.94,1.2,Calm,Calm,-,N/A,,Partly Cloudy,0,2013-05-21 05:47:00
1:54 AM,59.0,57.0,93,29.94,2.5,Calm,Calm,-,N/A,,Scattered Clouds,0,2013-05-21 05:54:00
2:05 AM,57.2,55.4,94,29.94,0.8,Calm,Calm,-,N/A,,Mostly Cloudy,0,2013-05-21 06:05:00
2:16 AM,57.2,55.4,94,29.94,1.5,Calm,Calm,-,N/A,,Mostly Cloudy,0,2013-05-21 06:16:00
2:39 AM,57.2,57.2,100,29.94,2.5,SSE,3.5,-,N/A,,Mostly Cloudy,160,2013-05-21 06:39:00
2:51 AM,57.2,55.4,94,29.93,3.0,Calm,Calm,-,N/A,,Scattered Clouds,0,2013-05-21 06:51:00
2:54 AM,59.0,55.9,90,29.92,3.0,SSE,3.5,-,N/A,,Scattered Clouds,160,2013-05-21 06:54:00
3:19 AM,57.2,55.4,94,29.92,1.8,Calm,Calm,-,N/A,,Clear,0,2013-05-21 07:19:00
3:32 AM,57.2,55.4,94,29.92,0.5,Calm,Calm,-,N/A,Fog,Fog,0,2013-05-21 07:32:00
3:54 AM,55.9,54.0,93,29.93,0.5,Calm,Calm,-,N/A,Fog,Fog,0,2013-05-21 07:54:00
4:17 AM,55.4,53.6,94,29.94,1.2,SE,3.5,-,N/A,,Scattered Clouds,140,2013-05-21 08:17:00
4:39 AM,57.2,55.4,94,29.93,2.5,Calm,Calm,-,N/A,,Partly Cloudy,0,2013-05-21 08:39:00
4:50 AM,57.2,55.4,94,29.94,1.2,Calm,Calm,-,N/A,,Mostly Cloudy,0,2013-05-21 08:50:00
4:54 AM,55.9,55.0,97,29.92,1.5,Calm,Calm,-,N/A,,Mostly Cloudy,0,2013-05-21 08:54:00
5:03 AM,57.2,55.4,94,29.93,3.0,Calm,Calm,-,N/A,,Scattered Clouds,0,2013-05-21 09:03:00
5:20 AM,55.4,53.6,94,29.91,1.8,Calm,Calm,-,0.01,,Scattered Clouds,0,2013-05-21 09:20:00
5:48 AM,57.2,55.4,94,29.91,3.0,Calm,Calm,-,0.01,,Clear,0,2013-05-21 09:48:00
5:54 AM,57.0,55.9,96,29.90,3.0,Calm,Calm,-,0.01,,Clear,0,2013-05-21 09:54:00
6:40 AM,59.0,57.2,94,29.92,2.5,North,3.5,-,N/A,,Clear,10,2013-05-21 10:40:00
6:52 AM,60.8,59.0,94,29.92,3.0,NNW,3.5,-,N/A,,Clear,330,2013-05-21 10:52:00
6:54 AM,61.0,59.0,93,29.91,3.0,Calm,Calm,-,N/A,,Clear,0,2013-05-21 10:54:00
7:54 AM,66.0,61.0,84,29.92,8.0,Calm,Calm,-,N/A,,Mostly Cloudy,0,2013-05-21 11:54:00
8:54 AM,68.0,63.0,84,29.93,9.0,North,3.5,-,N/A,,Mostly Cloudy,360,2013-05-21 12:54:00
9:54 AM,73.9,64.0,71,29.92,10.0,Calm,Calm,-,N/A,,Partly Cloudy,0,2013-05-21 13:54:00
10:54 AM,77.0,64.9,66,29.89,10.0,SSW,5.8,-,N/A,,Partly Cloudy,200,2013-05-21 14:54:00
11:54 AM,80.1,63.0,56,29.89,10.0,WNW,8.1,16.1,N/A,,Clear,300,2013-05-21 15:54:00
12:54 PM,82.0,60.1,47,29.88,10.0,North,3.5,-,N/A,,Mostly Cloudy,360,2013-05-21 16:54:00
1:54 PM,82.0,62.1,51,29.86,10.0,West,4.6,-,N/A,,Mostly Cloudy,260,2013-05-21 17:54:00
2:54 PM,84.0,62.1,47,29.85,10.0,Variable,3.5,-,N/A,,Mostly Cloudy,0,2013-05-21 18:54:00
3:54 PM,84.9,61.0,44,29.83,10.0,SE,5.8,-,N/A,,Clear,130,2013-05-21 19:54:00
4:54 PM,81.0,61.0,50,29.81,10.0,SSW,9.2,-,N/A,,Clear,210,2013-05-21 20:54:00
5:54 PM,81.0,61.0,50,29.82,10.0,South,5.8,-,N/A,,Clear,190,2013-05-21 21:54:00
6:54 PM,80.1,62.1,54,29.81,10.0,SSE,3.5,-,N/A,,Clear,150,2013-05-21 22:54:00
7:54 PM,75.9,64.0,67,29.81,10.0,SSW,6.9,-,N/A,,Scattered Clouds,210,2013-05-21 23:54:00
8:50 PM,75.2,64.4,69,29.81,10.0,SE,12.7,23.0,N/A,Thunderstorm,Thunderstorm,140,2013-05-22 00:50:00
8:54 PM,75.0,64.9,71,29.79,10.0,SE,13.8,20.7,N/A,Thunderstorm,Thunderstorm,130,2013-05-22 00:54:00
9:30 PM,71.6,62.6,73,29.84,10.0,East,10.4,-,N/A,Thunderstorm,Thunderstorm,90,2013-05-22 01:30:00
9:54 PM,70.0,61.0,73,29.80,10.0,ESE,9.2,21.9,N/A,Thunderstorm,Thunderstorm,110,2013-05-22 01:54:00
10:07 PM,66.2,62.6,88,29.90,1.8,NW,17.3,27.6,0.17,Rain-Thunderstorm,Heavy Thunderstorms and Rain,320,2013-05-22 02:07:00
10:16 PM,64.4,62.6,94,29.92,0.5,North,6.9,35.7,0.88,Fog-Rain-Thunderstorm,Heavy Thunderstorms and Rain,350,2013-05-22 02:16:00
10:24 PM,64.4,62.6,94,29.90,1.2,East,6.9,-,1.02,Rain-Thunderstorm,Heavy Thunderstorms and Rain,80,2013-05-22 02:24:00
10:38 PM,62.6,62.6,100,29.91,1.5,SSE,5.8,-,1.15,Rain-Thunderstorm,Thunderstorms and Rain,150,2013-05-22 02:38:00
10:43 PM,64.4,62.6,94,29.91,2.5,Calm,Calm,-,1.17,Rain-Thunderstorm,Thunderstorms and Rain,0,2013-05-22 02:43:00
10:50 PM,64.4,62.6,94,29.90,4.0,East,6.9,-,1.19,Rain-Thunderstorm,Light Thunderstorms and Rain,100,2013-05-22 02:50:00
10:54 PM,64.0,62.1,93,29.88,5.0,South,8.1,-,1.20,Rain-Thunderstorm,Light Thunderstorms and Rain,190,2013-05-22 02:54:00
11:33 PM,64.4,60.8,88,29.83,10.0,ESE,12.7,24.2,0.03,Rain-Thunderstorm,Light Rain,110,2013-05-22 03:33:00
11:49 PM,64.4,57.2,77,29.85,10.0,Variable,4.6,-,0.03,Thunderstorm,Mostly Cloudy,0,2013-05-22 03:49:00
11:54 PM,63.0,57.0,81,29.83,10.0,ESE,11.5,16.1,0.03,Thunderstorm,Mostly Cloudy,110,2013-05-22 03:54:00